Location: Pescara
(42.4670°N, 14.2170°E)
Time: 18:02:23
(UTC+02:00)

ISS - Pass Details

Date: 17 May 2021
Orbit: 417 x 422 km, 51.6° (Epoch: 18 June)

Event Time Altitude Azimuth Distance (km) Brightness Sun altitude
Rises 02:05:10 0° 306° (NW) 2,372 0.3 -26.4°
Reaches altitude 10° 02:07:29 10° 319° (NW) 1,507 -0.6 -26.2°
Maximum altitude 02:10:26 28° 20° (NNE) 835 -1.6 -26.1°
Drops below altitude 10° 02:13:24 10° 81° (E) 1,506 -0.6 -25.9°
Sets 02:15:42 0° 94° (E) 2,369 0.3 -25.7°
